Regional Weather Roundup
Issued by NWS Sioux Falls, SD

Home | Current Version | Previous Version | Text Only | Print | Product List | Glossary Off
Versions: 1 2 3 4 5 6 7 8 9 10 11 12 13 14 15 16 17 18 19 20 21 22 23 24 25 26 27 28 29 30 31 32 33 34 35 36 37 38 39 40 41 42 43 44 45 46 47 48 49 50

992
ASUS43 KFSD 292010
RWRFSD

WEATHER ROUNDUP FOR SE SOUTH DAKOTA/SW MINNESOTA/NW IOWA
NATIONAL WEATHER SERVICE SIOUX FALLS SD
300 PM CDT THU SEP 29 2016

NOTE: "FAIR" INDICATES FEW OR NO CLOUDS BELOW 12,000 FEET WITH NO
SIGNIFICANT WEATHER AND OR OBSTRUCTIONS TO VISIBILITY.


SDZ038>040-050-052>070-292100-
SOUTHEAST SOUTH DAKOTA

CITY           SKY/WX    TMP DP  RH WIND       PRES   REMARKS
BROOKINGS      SUNNY     64  48  56 E9        30.40F
CHAMBERLAIN    SUNNY     71  45  39 SE13G20   30.35F
HURON          SUNNY     68  47  46 S13       30.38F
MADISON        FAIR      64  48  55 NE5       30.40F
MITCHELL       SUNNY     69  47  45 S14       30.39F
SIOUX FALLS    MOSUNNY   67  48  50 E6        30.40F
WINNER         FAIR      73  44  35 S15       30.33F
YANKTON        SUNNY     66  48  52 E7        30.37F
$$

MNZ071-072-080-081-089-090-097-098-292100-
SOUTHWEST MINNESOTA

CITY           SKY/WX    TMP DP  RH WIND       PRES   REMARKS
FAIRMONT       MOSUNNY   67  49  52 NE9       30.41F
JACKSON        MOSUNNY   64  45  48 N3        30.42F
LUVERNE        SUNNY     66  45  45 E5        30.41F
MARSHALL       MOSUNNY   64  50  60 E9        30.42F
MONTEVIDEO     MOSUNNY   70  48  46 S8        30.44F
PIPESTONE      SUNNY     64  46  52 S8        30.41F
REDWOOD FALLS  SUNNY     67  47  48 CALM      30.42F
TRACY          PTSUNNY   66  51  59 SE5       30.42F
WINDOM         MOSUNNY   64  48  55 NE5       30.42F
WORTHINGTON    SUNNY     65  48  54 E6        30.42F
$$

IAZ001>003-012>014-020>022-031-032-NEZ013-014-SDZ071-292100-
NORTHWEST IOWA

CITY           SKY/WX    TMP DP  RH WIND       PRES   REMARKS
CHEROKEE       MOSUNNY   67  50  55 N8        30.39F
DENISON        SUNNY     68  46  45 NE8G17    30.36F
ESTHERVILLE    SUNNY     65  51  60 MISG      30.41F
LE MARS        MOSUNNY   68  48  49 VRB3      30.40F
SHELDON        MOSUNNY   66  48  52 SE5       30.39F
SIOUX CITY     MOSUNNY   71  52  50 CALM      30.38F
SPENCER        MOSUNNY   68  49  50 NE9       30.40F
STORM LAKE     SUNNY     66  46  48 VRB6      30.39F
$$

ABBREVIATIONS USED IN REMARKS
   TC - TEMPERATURE IN CELSIUS
  WCI - WIND CHILL INDEX
   HX - HEAT INDEX
  VSB - VISIBILITY





USA.gov is the U.S. government's official web portal to all federal, state and local government web resources and services.